CZ-6A DEB, 61345

Orbit data source: Space-Track

CZ-6A DEB, 61345 is space debris in LEO originally from a launch on Tue, 06 Aug 2024 UTC launched from the Taiyaun Space Center, China (TSC). Debris objects in space refer to the collection of defunct objects orbiting the Earth. Examples of debris include non-operational satellites, rocket bodies, and fragments generated from explosions, collisions, or faulty payload assembly.

Loading next visibility...
Identifier
61345, 2024-140VJ
Orbit
LEO
Country
Flag of CNCN / PRC
Related business
Manufacturer
SAST
Mission
Spacecraft
Bus & Motor
Unknown
Mass
Unknown
Launch date (UTC)
2024-08-06 (2 years ago)
Launch vehicle
Unknown
Launch site
Taiyaun Space Center, China (TSC)
Object type
Payload
Rocket body
Debris
Shape & HBR
Unknown shape, 0.1 m
Radar Cross Section
Small (<0.1 m²)

Expand to show TLE details & history
Last TLE update: 9 hours ago

TLE from 9 hours ago
0 CZ-6A DEB
1 61345U 24140VJ  26171.46972476  .00001372  00000-0  35064-3 0  9996
2 61345  88.6444 241.3393 0109062 205.3971 154.1851 14.46357084 94601
Epoch: 2026-06-20T11:16Z
TLE epoch observation values (Epoch: 2026-06-20T11:16:24.219Z)
Latitude
-0.00009°
Longitude
163.55449°
Altitude
810.695 km
Speed
7.411 km/s
True Right ascension
16h 05m 21s
True Declination
0° 00' 00"
Sunlit
Object was in full shadow at epoch
Visualization orbit readout
Latitude
Unknown
Longitude
Unknown
Altitude
Unknown
Speed
Unknown
Apparent Right ascension
Unknown
Apparent Declination
Unknown
Sunlit
N/A
Visualization observer readout
Local Sidereal Time
07:15:59
Azimuth
Unknown
Elevation
Unknown
Doppler factor
Unknown
Orbital elements
Apogee altitude
812.059 km
Perigee altitude
656.915 km
Semi-major axis
7,112.624 km
Eccentricity
0.01091
Inclination
88.6444°
RAAN
241.3393°
Arg. of periapsis
205.3971°
True anomaly
154.72272°
Mean anomaly
154.1851°
Eccentric anomaly
154.45456°
Mean motion
3.61825 °/min
Orbital period
99.5 mins
BSTAR
0.00035064
Loading maneuver chart data...
Computing Atmospheric mass density...
Loading historical data...
Loading historical data...
Loading historical data...
Loading historical data...
Loading historical data...
Loading historical data...
Loading historical data...

Documentation

Showing up to 5 results
|